Hourly Data Report for December 01, 2006

TORONTO CITY
ONTARIO

43°40'00.000" N
79°24'00.000" W
112.50 m
6158355
71508
XTO

Download Data

Hourly Data (December 2006)
Hourly Data Report for December 1, 2006
TIME
LST
Temp Definition
°C
Dew Point Definition
°C
Rel Hum Definition
%
Precip. Amount Definition
mm

Wind Dir Definition
10's deg

Wind Spd Definition
km/h
Visibility Definition
km
Stn Press Definition
kPa
Hmdx Definition


Wind Chill Definition


Weather Definition


00:00 4.6 2.4 86   LegendMM LegendMM   100.16     LegendNANA
01:00 4.1 2.6 90   LegendMM LegendMM   100.08     LegendNANA
02:00 3.9 2.7 92   LegendMM LegendMM   100.10     LegendNANA
03:00 3.6 2.4 92   LegendMM LegendMM   100.11     LegendNANA
04:00 3.5 2.8 95   LegendMM LegendMM   99.90     LegendNANA
05:00 3.7 2.8 94   LegendMM LegendMM   99.87     LegendNANA
06:00 3.6 2.7 94   LegendMM LegendMM   99.74     LegendNANA
07:00 4.1 3.5 96   LegendMM LegendMM   99.58     LegendNANA
08:00 4.1 3.5 96   LegendMM LegendMM   99.37     LegendNANA
09:00 3.5 2.9 96   LegendMM LegendMM   99.21     LegendNANA
10:00 3.1 2.6 97   LegendMM LegendMM   98.96     LegendNANA
11:00 3.0 2.6 97   LegendMM LegendMM   98.79     LegendNANA
12:00 3.6 3.1 97   LegendMM LegendMM   98.48     LegendNANA
13:00 2.9 2.4 97   LegendMM LegendMM   98.29     LegendNANA
14:00 3.0 2.5 97   LegendMM LegendMM   97.98     LegendNANA
15:00 3.7 2.9 94   LegendMM LegendMM   98.06     LegendNANA
16:00 4.1 3.6 97   LegendMM LegendMM   98.33     LegendNANA
17:00 5.8 1.9 76   LegendMM LegendMM   98.40     LegendNANA
18:00 4.9 1.0 76   LegendMM LegendMM   98.50     LegendNANA
19:00 4.3 0.0 74   LegendMM LegendMM   98.65     LegendNANA
20:00 4.4 0.5 76   LegendMM LegendMM   98.73     LegendNANA
21:00 4.2 0.6 77   LegendMM LegendMM   98.91     LegendNANA
22:00 3.1 0.5 83   LegendMM LegendMM   99.12     LegendNANA
23:00 2.3 -1.5 76   LegendMM LegendMM   99.36     LegendNANA

Notes on Data Quality.

Legend

  • E = Estimated
  • M = Missing
  • NA = Not Available*
  • [empty] = Indicates an unobserved value
Date modified: